20180228,148
20180301,146
20180302,144
20180305,142
20180306,145
20180307,144
20180308,145
20180309,146
20180312,147
20180313,148
20180314,148
20180315,148
20180316,148
20180319,146
20180320,146
20180322,147
20180323,141
20180326,143
20180327,146
20180328,151
20180329,160
20180330,163
20180402,163
20180403,162
20180404,162
20180405,165
20180406,164
20180409,165
20180410,165
20180411,163
20180412,163
20180413,163
20180416,164
20180417,163
20180418,166
20180419,166
20180420,176
20180423,176
20180424,177
20180425,177
20180426,177
20180427,178
20180501,178
20180502,178
20180507,179
20180508,179
20180509,179
20180510,179
20180511,181
20180514,183
20180515,182
20180516,182
20180517,183
20180518,183
20180521,183
20180522,183
20180523,182
20180524,182
20180525,182
20180528,183
20180529,182
20180530,180
20180531,191
20180601,191
20180604,194
20180605,194
20180606,196
20180607,197
20180608,196
20180611,197
20180612,199
20180613,203
20180614,201
20180615,199
20180618,204
20180619,201
20180620,211
20180621,211
20180622,211
20180625,210
20180626,214
20180627,220
20180628,222
20180629,224
20180702,218
20180703,217
20180704,219
20180705,218
20180706,219
20180709,223
20180710,224
20180711,232
20180712,233
20180713,237
20180717,240
20180718,241
20180719,241
20180720,241
20180723,240
20180724,240
20180725,241
20180726,243
20180727,245
20180730,242
20180731,242
20180801,244
20180802,241
20180803,256
20180806,254
20180807,255
20180808,256
20180809,255
20180810,253
20180813,247
20180814,251
20180815,258
20180816,261
20180817,262
20180820,261
20180821,260
20180822,262
20180823,263
20180824,268
20180827,272
20180828,272
20180829,274
20180830,275
20180831,275
20180903,273
20180904,274
20180905,272
20180906,270
20180907,269
20180910,270
20180911,272
20180912,271
20180913,274
20180914,276
20180918,281
20180919,285
20180920,285
20180921,286
20180925,291
20180926,295
20180927,291
20180928,294
20181001,295
20181002,296
20181003,293
20181004,292
20181005,290
20181009,286
20181010,287
20181011,276
20181012,278
20181015,284
20181016,284
20181017,289
20181018,287
20181019,285
20181022,286
20181023,277
20181024,289
20181025,280
20181026,277
20181029,272
20181030,278
20181031,278
20181101,277
20181102,285
20181105,281
20181106,283
20181107,283
20181108,288
20181109,286
20181112,285
20181113,261
20181114,262
20181115,262
20181116,260
20181119,262
20181120,240
20181121,239
20181122,242
20181126,243
20181127,226
20181128,228
20181129,230
20181130,232
20181203,235
20181204,210
20181205,210
20181206,205
20181207,207
20181210,202
20181211,182
20181212,186
20181213,187
20181214,183
20181217,183
20181218,163
20181219,163
20181220,154
20181221,153
20181225,130
20181226,131
20181227,127
20181228,125
20190104,123
20190107,126
20190108,127
20190109,130
20190110,128
20190111,128
20190115,129
20190116,129
20190117,130
20190118,131
20190121,131
20190122,131
20190123,129
20190124,130
20190125,131
20190128,130
20190129,130
20190130,130
20190131,132
20190201,132
20190204,134
20190205,135
20190206,134
20190207,133
20190208,130
20190212,134
20190213,135
20190214,136
20190215,134
20190218,137
20190219,137
20190220,138
20190221,126
20190222,128
20190225,138
20190226,138
20190227,142
20190228,141
20190301,142
20190304,144
20190305,142
20190306,142
20190307,141
20190308,138
20190311,149
20190312,178
20190313,176
20190314,176
20190315,177
20190318,178
20190319,177
20190320,178
20190322,177
20190325,172
20190326,177
20190327,179
20190328,176
20190329,178
20190401,180
20190402,179
20190403,185
20190404,185
20190405,186
20190408,185
20190409,186
20190410,185
20190411,185
20190412,185
20190415,188
20190416,188
20190417,191
20190418,190
20190419,206
20190422,215
20190423,216
20190424,217
20190425,220
20190426,222
20190507,219
20190508,215
20190509,213
20190510,213
20190513,211
20190514,212
20190515,214
20190516,214
20190517,215
20190520,215
20190521,214
20190522,213
20190523,213
20190524,213
20190527,214
20190528,216
20190529,213
20190530,212
20190531,208
20190603,205
20190604,208
20190605,213
20190606,213
20190607,214
20190610,218
20190611,219
20190612,219
20190613,217
20190614,218
20190617,216
20190618,214
20190619,218
20190620,220
20190621,221
20190624,221
20190625,221
20190626,219
20190627,222
20190628,222
20190701,228
20190702,229
20190703,227
20190704,226
20190705,226
20190708,223
20190709,223
20190710,222
20190711,222
20190712,222
20190716,221
20190717,221
20190718,216
20190719,221
20190722,219
20190723,221
20190724,222
20190725,224
20190726,223
20190729,223
20190730,225
20190731,224
20190801,224
20190802,220
20190805,215
20190806,214
20190807,214
20190808,214
20190809,216
20190813,213
20190814,215
20190815,213
20190816,213
20190819,214
20190820,217
20190821,215
20190822,215
20190823,215
20190826,212
20190827,213
20190828,209
20190829,209
20190830,211
20190902,210
20190903,210
20190904,210
20190905,214
20190906,215
20190909,217
20190910,218
20190911,221
20190912,223
20190913,225
20190917,226
20190918,225
20190919,217
20190920,218
20190924,219
20190925,219
20190926,219
20190927,219
20190930,218
20191001,220
20191002,217
20191003,214
20191004,214
20191007,214
20191008,217
20191009,216
20191010,216
20191011,207
20191015,211
20191016,212
20191017,211
20191018,208
20191021,209
20191023,211
20191024,212
20191025,214
20191028,213
20191029,215
20191030,215
20191031,209
20191101,219
20191105,206
20191106,205
20191107,206
20191108,204
20191111,190
20191112,191
20191113,189
20191114,187
20191115,187
20191118,186
20191119,186
20191120,186
20191121,185
20191122,191
20191125,192
20191126,192
20191127,192
20191128,176
20191129,182
20191202,184
20191203,174
20191204,173
20191205,173
20191206,173
20191209,174
20191210,174
20191211,174
20191212,178
20191213,180
20191216,180
20191217,181
20191218,182
20191219,185
20191220,184
20191223,182
20191224,182
20191225,182
20191226,182
20191227,183
20191230,181
20200106,178
20200107,181
20200108,178
20200109,182
20200110,183
20200114,182
20200115,176
20200116,176
20200117,177
20200120,186
20200121,184
20200122,186
20200123,179
20200124,191
20200127,188
20200128,187
20200129,185
20200130,183
20200131,193
20200203,191
20200204,194
20200205,197
20200206,203
20200207,202
20200210,203
20200212,203
20200213,202
20200214,201
20200217,199
20200218,196
20200219,197
20200220,197
20200221,197
20200225,191
20200226,189
20200227,189
20200228,182
20200302,184
20200303,181
20200304,181
20200305,183
20200306,178
20200309,168
20200310,171
20200311,167
20200312,160
20200313,153
20200316,149
20200317,152
20200318,154
20200319,157
20200323,155
20200324,160
20200325,171
20200326,168
20200327,176
20200330,174
20200331,172
20200401,165
20200402,163
20200403,162
20200406,167
20200407,171
20200408,175
20200409,174
20200410,176
20200413,174
20200414,178
20200415,178
20200416,177
20200417,180
20200420,178
20200421,176
20200422,174
20200423,176
20200424,176
20200427,179
20200428,180
20200430,182
20200501,178
20200507,180
20200508,183
20200511,184
20200512,185
20200513,186
20200514,183
20200515,229
20200518,232
20200519,236
20200520,238
20200521,239
20200522,237
20200525,241
20200526,245
20200527,247
20200528,251
20200529,251
20200601,251
20200602,255
20200603,255
20200604,258
20200605,266
20200608,268
20200609,268
20200610,269
20200611,258
20200612,261
20200615,253
20200616,262
20200617,261
20200618,260
20200619,260
20200622,261
20200623,262
20200624,263
20200625,260
20200626,262
20200629,261
20200630,262
20200701,258
20200702,257
20200703,261
20200706,264
20200707,264
20200708,261
20200709,260
20200710,257
20200713,262
20200714,260
20200715,265
20200716,263
20200717,262
20200720,263
20200721,265
20200722,263
20200727,263
20200728,262
20200729,259
20200730,258
20200731,252
20200803,255
20200804,260
20200805,261
20200806,260
20200807,260
20200811,267
20200812,270
20200813,274
20200814,275
20200817,273
20200818,274
20200819,275
20200820,273
20200821,275
20200824,272
20200825,274
20200826,273
20200827,273
20200828,270
20200831,273
20200901,274
20200902,276
20200903,279
20200904,274
20200907,274
20200908,278
20200909,277
20200910,281
20200911,283
20200914,283
20200915,283
20200916,294
20200917,293
20200918,285
20200923,286
20200924,284
20200925,286
20200928,297
20200929,288
20200930,292
20201001,294
20201002,291
20201005,296
20201006,297
20201007,298
20201008,293
20201009,291
20201012,291
20201013,291
20201014,290
20201015,281
20201016,282
20201019,284
20201020,285
20201021,294
20201022,290
20201023,291
20201026,288
20201027,307
20201028,307
20201029,306
20201030,291
20201102,295
20201104,295
20201105,292
20201106,299
20201109,305
20201110,294
20201111,289
20201112,282
20201113,279
20201116,282
20201117,282
20201118,280
20201119,277
20201120,277
20201124,283
20201125,282
20201126,283
20201127,277
20201130,272
20201201,276
20201202,264
20201203,263
20201204,263
20201207,260
20201208,260
20201209,264
20201210,261
20201211,264
20201214,264
20201215,254
20201216,255
20201217,255
20201218,255
20201221,256
20201222,253
20201223,254
20201224,237
20201225,239
20201228,244
20201229,250
20201230,250
20210104,247
20210105,250
20210106,247
20210107,252
20210108,256
20210112,262
20210113,264
20210114,264
20210115,261
20210118,260
20210119,261
20210120,260
20210121,263
20210122,256
20210125,258
20210126,256
20210127,260
20210128,254
20210129,253
20210201,258
20210202,263
20210203,268
20210204,266
20210205,253
20210208,256
20210209,250
20210210,252
20210212,253
20210215,254
20210216,255
20210217,255
20210218,252
20210219,252
20210222,253
20210224,247
20210225,252
20210226,250
20210301,259
20210302,259
20210303,261
20210304,260
20210305,261
20210308,261
20210309,264
20210310,265
20210311,267
20210312,271
20210315,273
20210316,274
20210317,277
20210318,282
20210319,281
20210322,276
20210323,274
20210324,268
20210325,272
20210326,276
20210329,277
20210330,277
20210331,275
20210401,282
20210402,283
20210405,294
20210406,288
20210407,290
20210408,289
20210409,290
20210412,298
20210413,299
20210414,298
20210415,299
20210416,300
20210419,302
20210420,295
20210421,290
20210422,296
20210423,293
20210426,292
20210427,286
20210428,293
20210430,292
20210506,296
20210507,297
20210510,302
20210511,294
20210512,290
20210513,284
20210514,290
20210517,283
20210518,288
20210519,287
20210520,287
20210521,288
20210524,290
20210525,290
20210526,295
20210527,299
20210528,300
20210531,298
20210601,298
20210602,301
20210603,303
20210604,303
20210607,304
20210608,305
20210609,304
20210610,310
20210611,310
20210614,316
20210615,301
20210616,303
20210617,305
20210618,307
20210621,304
20210622,319
20210623,316
20210624,331
20210625,333
20210628,334
20210629,332
20210630,332
20210701,332
20210702,335
20210705,335
20210706,337
20210707,336
20210708,335
20210709,333
20210712,345
20210713,351
20210714,350
20210715,345
20210716,638
20210719,629
20210720,628
20210721,636
20210726,650
20210727,656
20210728,648
20210729,650
20210730,640
20210802,655
20210803,652
20210804,649
20210805,651
20210806,653
20210810,657
20210811,662
20210812,663
20210813,666
20210816,654
20210817,650
20210818,655
20210819,649
20210820,643
20210823,656
20210824,663
20210825,663
20210826,662
20210827,659
20210830,667
20210831,676
20210901,682
20210902,684
20210903,695
20210906,704
20210907,713
20210908,399
20210909,395
20210910,402
20210913,407
20210914,412
20210915,408
20210916,406
20210917,408
20210921,411
20210922,407
20210924,416
20210927,413
20210928,410
20210929,404
20210930,406
20211001,399
20211004,401
20211005,401
20211006,401
20211007,403
20211008,414
20211011,422
20211012,419
20211013,419
20211014,424
20211015,432
20211018,430
20211019,432
20211020,433
20211021,429
20211022,425
20211025,425
20211026,432
20211027,432
20211028,430
20211029,431
20211101,443
20211102,439
20211104,444
20211105,443
20211108,443
20211109,439
20211110,435
20211111,438
20211112,444
20211115,446
20211116,444
20211117,440
20211118,440
20211119,441
20211122,440
20211124,434
20211125,435
20211126,429
20211129,422
20211130,416
20211201,418
20211202,416
20211203,423
20211206,420
20211207,430
20211208,435
20211209,432
20211210,428
20211213,430
20211214,429
20211215,416
20211216,423
20211217,415
20211220,371
20211221,375
20211222,376
20211223,382
20211224,384
20211227,384
20211228,389
20211229,390
20211230,389
20220104,396
20220105,397
20220106,388
20220107,388
20220111,388
20220112,394
20220113,391
20220114,385
20220117,385
20220118,384
20220119,368
20220120,373
20220121,371
20220124,371
20220125,454
20220126,455
20220127,440
20220128,449
20220131,454
20220201,452
20220202,463
20220203,459
20220204,461
20220207,459
20220208,461
20220209,466
20220210,468
20220214,458
20220215,454
20220216,461
20220217,456
20220218,456
20220221,453
20220222,450
20220224,446
20220225,450
20220228,453
20220301,472
20220302,462
20220303,468
20220304,444
20220307,429
20220308,422
20220309,421
20220310,438
20220311,427
20220314,428
20220315,432
20220316,438
20220317,452
20220318,456
20220322,459
20220323,464
20220324,466
20220325,471
20220328,467
20220329,473
20220330,474
20220331,467
20220401,466
20220404,471
20220405,470
20220406,464
20220407,462
20220408,465
20220411,462
20220412,454
20220413,461
20220414,466
20220415,462
20220418,488
20220419,492
20220420,497
20220421,501
20220422,494
20220425,488
20220426,490
20220427,487
20220428,497
20220502,493
20220506,494
20220509,482
20220510,479
20220511,476
20220512,467
20220513,478
20220516,477
20220517,477
20220518,480
20220519,474
20220520,480
20220523,487
20220524,482
20220525,480
20220526,473
20220527,474
20220530,486
20220531,483
20220601,486
20220602,480
20220603,482
20220606,474
20220607,475
20220608,483
20220609,484
20220610,478
20220613,466
20220614,461
20220615,454
20220616,456
20220617,447
20220620,443
20220621,453
20220622,453
20220623,455
20220624,463
20220627,468
20220628,473
20220629,469
20220630,466
20220701,460
20220704,467
20220705,471
20220706,467
20220707,474
20220708,477
20220711,481
20220712,472
20220713,473
20220714,474
20220715,476
20220719,477
20220720,487
20220721,486
20220722,492
20220725,488
20220726,487
20220727,488
20220728,489
20220729,488
20220801,497
20220802,487
20220803,489
20220804,489
20220805,491
20220808,490
20220809,489
20220810,489
20220812,499
20220815,502
20220816,504
20220817,509
20220818,502
20220819,502
20220822,497
20220823,490
20220824,488
20220825,492
20220826,493
20220829,481
20220830,486
20220831,487
20220901,479
20220902,476
20220905,476
20220906,475
20220907,473
20220908,484
20220909,487
20220912,491
20220913,491
20220914,481
20220915,481
20220916,478
20220920,480
20220921,473
20220922,472
20220926,460
20220927,462
20220928,459
20220929,469
20220930,461
20221003,466
20221004,479
20221005,482
20221006,484
20221007,479
20221011,471
20221012,469
20221013,464
20221014,475
20221017,468
20221018,475
20221019,476
20221020,473
20221021,469
20221024,470
20221025,473
20221026,478
20221027,474
20221028,473
20221031,478
20221101,478
20221102,476
20221104,468
20221107,473
20221108,478
20221109,475
20221110,473
20221111,484
20221114,481
20221115,481
20221116,480
20221117,481
20221118,481
20221121,483
20221122,488
20221124,493
20221125,492
20221128,487
20221129,483
20221130,480
20221201,483
20221202,474
20221205,473
20221206,472
20221207,471
20221208,469
20221209,475
20221212,474
20221213,475
20221214,478
20221215,468
20221216,462
20221219,459
20221220,451
20221221,449
20221222,452
20221223,447
20221226,448
20221227,451
20221228,451
20221229,452
20221230,452
20230104,444
20230105,445
20230106,446
20230110,448
20230111,453
20230112,455
20230113,452
20230116,450
20230117,453
20230118,462
20230119,457
20230120,458
20230123,464
20230124,471
20230125,472
20230126,472
20230127,471
20230130,468
20230131,462
20230201,462
20230202,462
20230203,462
20230206,464
20230207,465
20230208,466
20230209,465
20230210,465
20230213,462
20230214,466
20230215,464
20230216,467
20230217,463
20230220,464
20230221,462
20230222,457
20230224,459
20230227,460
20230228,466
20230301,466
20230302,465
20230303,470
20230306,473
20230307,475
20230308,476
20230309,481
20230310,472
20230313,465
20230314,454
20230315,456
20230316,452
20230317,458
20230320,450
20230322,458
20230323,457
20230324,456
20230327,457
20230328,458
20230329,465
20230330,465
20230331,469
20230403,472
20230404,473
20230405,462
20230406,456
20230407,457
20230410,459
20230411,463
20230412,466
20230413,468
20230414,471
20230417,473
20230418,477
20230419,476
20230420,447
20230421,447
20230424,447
20230425,448
20230426,443
20230427,445
20230428,452
20230501,456
20230502,452
20230508,451
20230509,458
20230510,453
20230511,452
20230512,454
20230515,461
20230516,464
20230517,464
20230518,462
20230519,464
20230522,466
20230523,463
20230524,460
20230525,461
20230526,458
20230529,460
20230530,459
20230531,455
20230601,459
20230602,458
20230605,465
20230606,466
20230607,458
20230608,454
20230609,459
20230612,463
20230613,469
20230614,474
20230615,460
20230616,463
20230619,456
20230620,453
20230621,455
20230622,454
20230623,446
20230626,443
20230627,439
20230628,448
20230629,449
20230630,447
20230703,454
20230704,451
20230705,450
20230706,443
20230707,438
20230710,436
20230711,435
20230712,430
20230713,435
20230714,436
20230718,439
20230719,444
20230720,439
20230721,439
20230724,444
20230725,442
20230726,443
20230727,445
20230728,445
20230731,451
20230801,452
20230802,445
20230803,437
20230804,439
20230807,440
20230808,441
20230809,437
20230810,440
20230814,435
20230815,437
20230816,433
20230817,431
20230818,428
20230821,429
20230822,431
20230823,434
20230824,435
20230825,436
20230828,443
20230829,445
20230830,448
20230831,451
20230901,453
20230904,456
20230905,457
20230906,461
20230907,456
20230908,452
20230911,452
20230912,456
20230913,455
20230914,459
20230915,461
20230919,460
20230920,454
20230921,450
20230922,449
20230925,451
20230926,448
20230927,445
20230928,442
20230929,439
20231002,437
20231003,430
20231004,421
20231005,430
20231006,429
20231010,437
20231011,435
20231012,443
20231013,434
20231016,426
20231017,430
20231018,430
20231019,423
20231020,421
20231023,418
20231024,417
20231025,420
20231026,414
20231027,420
20231030,415
20231031,419
20231101,428
20231102,432
20231106,441
20231107,434
20231108,431
20231109,435
20231110,436
20231113,436
20231114,439
20231115,445
20231116,442
20231117,446
20231120,438
20231121,435
20231122,436
20231124,439
20231127,437
20231128,435
20231129,434
20231130,437
20231201,438
20231204,434
20231205,428
20231206,436
20231207,429
20231208,423
20231211,428
20231212,427
20231213,430
20231214,426
20231215,419
20231218,414
20231219,419
20231220,422
20231221,416
20231222,417
20231225,417
20231226,418
20231227,422
20231228,423
20231229,423
20240104,424
20240105,419
20240109,419
20240110,423
20240111,429
20240112,429
20240115,433
20240116,428
20240117,424
20240118,423
20240119,427
20240122,433
20240123,432
20240124,430
20240125,430
20240126,424
20240129,426
20240130,426
20240131,429
20240201,427
20240202,431
20240205,433
20240206,427
20240207,427
20240208,430
20240209,430
20240213,441
20240214,433
20240215,437
20240216,442
20240219,442
20240220,441
20240221,440
20240222,452
20240226,455
20240227,457
20240228,459
20240229,459
20240301,465
20240304,466
20240305,462
20240306,462
20240307,460
20240308,462
20240311,451
20240312,450
20240313,448
20240314,449
20240315,447
20240318,455
20240319,458
20240321,466
20240322,469
20240325,447
20240326,448
20240327,451
20240328,447
20240329,446
20240401,437
20240402,437
20240403,435
20240404,439
20240405,433
20240408,437
20240409,442
20240410,440
20240411,442
20240412,441
20240415,441
20240416,430
20240417,425
20240418,427
20240419,416
20240422,421
20240423,422
20240424,430
20240425,422
20240426,426
20240430,436
20240501,434
20240502,434
20240507,438
20240508,434
20240509,437
20240510,435
